When you browse on this site, cookies collect data to enhance your experience and personalize the content and advertising you see.
Visit our Privacy Policy to learn more. By continuing to use the site, you agree to this use of cookies and data.
  • In France
  • List of Countries
  • For 7 days
  • Water Temperature
  • Satellite Maps
  • Weather Map
  • Weather Widgets
  • user-avatar
    Login

    Hourly Weather Florencia

    Today, 20 November, Tuesday

    Time Temperature Precipitation Wind Pressure Humidity
    00:00 +24°C° 1.3 mm 0 mps 732 mmHg 95%
    01:00 +26°C° 0 mm 1 mps 732 mmHg 95%
    02:00 +26°C° 1.2 mm 1 mps 732 mmHg 95%
    03:00 +23°C° 1.2 mm 0 mps 732 mmHg 95%
    04:00 +23°C° 1.2 mm 0 mps 732 mmHg 95%
    05:00 +23°C° 0.9 mm 0 mps 732 mmHg 94%
    06:00 +24°C° 0.9 mm 0 mps 733 mmHg 94%
    07:00 +24°C° 0.9 mm 0 mps 733 mmHg 93%
    08:00 +25°C° 0.7 mm 0 mps 734 mmHg 89%
    09:00 +26°C° 0.7 mm 0 mps 734 mmHg 84%
    10:00 +27°C° 0.7 mm 0 mps 734 mmHg 80%
    11:00 +30°C° 0.7 mm 1 mps 733 mmHg 79%
    12:00 +30°C° 0.7 mm 1 mps 733 mmHg 79%
    13:00 +30°C° 0.7 mm 1 mps 732 mmHg 78%
    14:00 +30°C° 0.9 mm 1 mps 732 mmHg 80%
    15:00 +30°C° 0.9 mm 1 mps 731 mmHg 83%
    16:00 +29°C° 0.9 mm 1 mps 730 mmHg 85%
    17:00 +28°C° 0.6 mm 1 mps 731 mmHg 89%
    18:00 +25°C° 0.6 mm 0 mps 731 mmHg 93%
    19:00 +24°C° 0.6 mm 0 mps 732 mmHg 97%
    20:00 +24°C° 0.7 mm 0 mps 732 mmHg 97%
    21:00 +24°C° 0.7 mm 0 mps 733 mmHg 96%
    22:00 +24°C° 0.7 mm 0 mps 733 mmHg 96%
    23:00 +23°C° 0.8 mm 0 mps 733 mmHg 95%

    Tomorrow, 21 November, Wednesday

    Time Temperature Precipitation Wind Pressure Humidity
    00:00 +23°C° 0.8 mm 0 mps 733 mmHg 95%
    01:00 +23°C° 0.8 mm 0 mps 733 mmHg 95%
    02:00 +23°C° 0.8 mm 0 mps 733 mmHg 94%
    03:00 +23°C° 0.8 mm 0 mps 732 mmHg 94%
    04:00 +23°C° 0.8 mm 0 mps 732 mmHg 93%
    05:00 +23°C° 0.9 mm 0 mps 733 mmHg 93%
    06:00 +23°C° 0.9 mm 0 mps 733 mmHg 92%
    07:00 +23°C° 0.9 mm 0 mps 733 mmHg 92%
    08:00 +24°C° 1.1 mm 0 mps 734 mmHg 91%
    09:00 +24°C° 1.1 mm 0 mps 734 mmHg 91%
    10:00 +25°C° 1.1 mm 0 mps 734 mmHg 90%
    11:00 +27°C° 0.5 mm 0 mps 734 mmHg 80%
    12:00 +29°C° 0.5 mm 0 mps 733 mmHg 71%
    13:00 +31°C° 0.5 mm 0 mps 732 mmHg 61%
    14:00 +31°C° 0.2 mm 0 mps 731 mmHg 60%
    15:00 +31°C° 0.2 mm 0 mps 731 mmHg 60%
    16:00 +31°C° 0.2 mm 0 mps 730 mmHg 59%
    17:00 +29°C° 0.1 mm 0 mps 730 mmHg 67%
    18:00 +27°C° 0.1 mm 0 mps 731 mmHg 76%
    19:00 +25°C° 0.1 mm 0 mps 731 mmHg 84%
    20:00 +25°C° 0.1 mm 0 mps 732 mmHg 85%
    21:00 +24°C° 0.1 mm 0 mps 732 mmHg 87%
    22:00 +24°C° 0.1 mm 0 mps 733 mmHg 89%
    23:00 +24°C° 0.3 mm 0 mps 733 mmHg 90%

    Day after tomorrow, 22 November, Thursday

    Time Temperature Precipitation Wind Pressure Humidity
    00:00 +23°C° 0.3 mm 0 mps 732 mmHg 91%
    01:00 +23°C° 0.3 mm 0 mps 732 mmHg 92%
    02:00 +23°C° 0.4 mm 0 mps 732 mmHg 92%
    03:00 +23°C° 0.4 mm 0 mps 732 mmHg 92%
    04:00 +23°C° 0.4 mm 0 mps 731 mmHg 91%
    05:00 +23°C° 0.5 mm 0 mps 732 mmHg 90%
    06:00 +24°C° 0.5 mm 0 mps 732 mmHg 89%
    07:00 +24°C° 0.5 mm 0 mps 733 mmHg 88%
    08:00 +26°C° 0.5 mm 0 mps 733 mmHg 83%
    09:00 +27°C° 0.5 mm 0 mps 733 mmHg 78%
    10:00 +29°C° 0.5 mm 0 mps 734 mmHg 73%
    11:00 +30°C° 0.7 mm 0 mps 733 mmHg 70%
    12:00 +31°C° 0.7 mm 0 mps 732 mmHg 67%
    13:00 +31°C° 0.7 mm 0 mps 731 mmHg 64%
    14:00 +33°C° 0.3 mm 1 mps 730 mmHg 65%
    15:00 +32°C° 0.3 mm 1 mps 730 mmHg 66%
    16:00 +32°C° 0.3 mm 1 mps 729 mmHg 66%
    17:00 +30°C° 0.1 mm 1 mps 729 mmHg 72%
    18:00 +29°C° 0.1 mm 1 mps 730 mmHg 79%
    19:00 +27°C° 0.1 mm 1 mps 730 mmHg 85%
    20:00 +27°C° 0 mm 1 mps 731 mmHg 84%
    21:00 +26°C° 0 mm 1 mps 732 mmHg 83%
    22:00 +26°C° 0 mm 1 mps 732 mmHg 83%
    23:00 +26°C° 0 mm 1 mps 732 mmHg 82%

    23 November, Friday

    Time Temperature Precipitation Wind Pressure Humidity
    00:00 +26°C° 0 mm 1 mps 731 mmHg 82%
    01:00 +25°C° 0 mm 1 mps 731 mmHg 82%
    02:00 +25°C° 0 mm 1 mps 731 mmHg 82%
    03:00 +25°C° 0 mm 1 mps 730 mmHg 82%
    04:00 +24°C° 0 mm 1 mps 730 mmHg 82%
    05:00 +25°C° 0 mm 1 mps 731 mmHg 80%
    06:00 +25°C° 0 mm 1 mps 731 mmHg 79%
    07:00 +26°C° 0 mm 1 mps 732 mmHg 77%
    08:00 +28°C° 0 mm 1 mps 732 mmHg 68%
    09:00 +31°C° 0 mm 1 mps 732 mmHg 59%
    10:00 +34°C° 0 mm 1 mps 733 mmHg 51%
    11:00 +34°C° 0.1 mm 1 mps 732 mmHg 51%
    12:00 +35°C° 0.1 mm 1 mps 731 mmHg 51%
    13:00 +36°C° 0.1 mm 2 mps 730 mmHg 51%
    14:00 +34°C° 0.4 mm 1 mps 729 mmHg 55%
    15:00 +34°C° 0.4 mm 1 mps 728 mmHg 59%
    16:00 +33°C° 0.4 mm 1 mps 728 mmHg 63%
    17:00 +31°C° 0.3 mm 1 mps 728 mmHg 70%
    18:00 +29°C° 0.3 mm 1 mps 729 mmHg 76%
    19:00 +28°C° 0.3 mm 1 mps 730 mmHg 82%
    20:00 +27°C° 0.1 mm 1 mps 730 mmHg 84%
    21:00 +26°C° 0.1 mm 1 mps 731 mmHg 87%
    22:00 +25°C° 0.1 mm 1 mps 732 mmHg 89%
    23:00 +25°C° 0.1 mm 1 mps 731 mmHg 89%

    24 November, Saturday

    Time Temperature Precipitation Wind Pressure Humidity
    00:00 +25°C° 0.1 mm 1 mps 731 mmHg 88%
    01:00 +24°C° 0.1 mm 1 mps 730 mmHg 88%
    02:00 +24°C° 0 mm 1 mps 730 mmHg 88%
    03:00 +24°C° 0 mm 1 mps 730 mmHg 87%
    04:00 +24°C° 0 mm 1 mps 730 mmHg 86%
    05:00 +24°C° 0 mm 1 mps 730 mmHg 83%
    06:00 +25°C° 0 mm 1 mps 731 mmHg 80%
    07:00 +26°C° 0 mm 1 mps 732 mmHg 77%
    08:00 +29°C° 0 mm 1 mps 732 mmHg 67%
    09:00 +32°C° 0 mm 1 mps 732 mmHg 57%
    10:00 +35°C° 0 mm 1 mps 732 mmHg 47%
    11:00 +35°C° 0.1 mm 1 mps 731 mmHg 48%
    12:00 +35°C° 0.1 mm 1 mps 730 mmHg 48%
    13:00 +37°C° 0.1 mm 2 mps 729 mmHg 49%
    14:00 +35°C° 0.3 mm 1 mps 729 mmHg 52%
    15:00 +35°C° 0.3 mm 1 mps 728 mmHg 55%
    16:00 +34°C° 0.3 mm 1 mps 727 mmHg 58%
    17:00 +32°C° 0.3 mm 1 mps 728 mmHg 66%
    18:00 +30°C° 0.3 mm 1 mps 729 mmHg 73%
    19:00 +28°C° 0.3 mm 1 mps 730 mmHg 81%
    20:00 +27°C° 1.2 mm 1 mps 730 mmHg 85%
    21:00 +26°C° 1.2 mm 1 mps 731 mmHg 90%
    22:00 +25°C° 1.2 mm 1 mps 732 mmHg 94%
    23:00 +25°C° 0.7 mm 1 mps 731 mmHg 93%

    25 November, Sunday

    Time Temperature Precipitation Wind Pressure Humidity
    00:00 +25°C° 0.7 mm 1 mps 731 mmHg 93%
    01:00 +24°C° 0.7 mm 1 mps 731 mmHg 92%
    02:00 +24°C° 0.2 mm 1 mps 731 mmHg 91%
    03:00 +24°C° 0.2 mm 1 mps 731 mmHg 90%
    04:00 +24°C° 0.2 mm 1 mps 731 mmHg 89%
    05:00 +24°C° 0 mm 1 mps 731 mmHg 87%
    06:00 +24°C° 0 mm 1 mps 732 mmHg 85%
    07:00 +25°C° 0 mm 1 mps 732 mmHg 84%
    08:00 +27°C° 0 mm 1 mps 732 mmHg 74%
    09:00 +30°C° 0 mm 1 mps 732 mmHg 64%
    10:00 +32°C° 0 mm 1 mps 733 mmHg 54%
    11:00 +34°C° 0 mm 1 mps 732 mmHg 50%
    12:00 +35°C° 0 mm 1 mps 731 mmHg 46%
    13:00 +36°C° 0 mm 1 mps 730 mmHg 42%
    14:00 +35°C° 0 mm 1 mps 729 mmHg 45%
    15:00 +35°C° 0 mm 1 mps 729 mmHg 48%
    16:00 +34°C° 0 mm 1 mps 728 mmHg 50%
    17:00 +32°C° 0 mm 1 mps 729 mmHg 58%
    18:00 +30°C° 0 mm 1 mps 729 mmHg 66%
    19:00 +28°C° 0 mm 1 mps 730 mmHg 75%
    20:00 +27°C° 0.2 mm 1 mps 731 mmHg 76%
    21:00 +27°C° 0.2 mm 1 mps 731 mmHg 78%
    22:00 +26°C° 0.2 mm 1 mps 732 mmHg 79%
    23:00 +26°C° 0.4 mm 1 mps 731 mmHg 80%
    Show more